FW1693 Weather Reports


time (UTC)temp
F
wind
direction
speed
knots
gust
knots
rain 1hr
in
rain 24hr
in
rain mn
in
humidity
%
barometer
mb
20260507203059 64 134 6.1 7.8 0.00 0.03 0.00 84 1015.5
20260507201549 64 146 6.1 7.8 0.00 0.03 0.00 83 1015.6
20260507200047 64 137 7.0 7.8 0.00 0.03 0.00 83 1015.6
20260507194615 64 140 7.0 8.7 0.00 0.03 0.00 83 1015.4
20260507193146 64 141 7.0 8.7 0.00 0.05 0.00 83 1015.4
20260507191544 64 143 7.8 10.4 0.00 0.05 0.00 83 1015.2
20260507190039 64 146 9.6 11.3 0.00 0.05 0.00 83 1015.1
20260507184540 64 143 8.7 11.3 0.00 0.05 0.00 84 1015.2
20260507183039 64 139 8.7 12.2 0.00 0.15 0.00 83 1014.9
20260507181536 64 133 9.6 13.0 0.00 0.15 0.00 79 1014.8
20260507180038 64 139 8.7 11.3 0.00 0.15 0.00 77 1014.7
20260507174541 65 138 9.6 12.2 0.00 0.15 0.00 73 1014.5
20260507173131 65 134 8.7 11.3 0.00 0.16 0.00 73 1014.5
20260507171529 65 141 9.6 11.3 0.00 0.16 0.00 70 1014.5
20260507170029 65 138 9.6 11.3 0.00 0.16 0.00 72 1014.3
20260507164526 65 130 7.8 9.6 0.00 0.16 0.00 69 1014.4
20260507163025 65 112 7.8 9.6 0.00 0.17 0.00 67 1014.2
20260507161527 65 117 7.8 9.6 0.00 0.17 0.00 66 1014.1
20260507160025 65 110 7.8 9.6 0.00 0.17 0.00 67 1014.1
20260507154530 65 112 7.0 9.6 0.00 0.17 0.00 68 1014.0
20260507153035 65 108 7.0 9.6 0.00 0.19 0.00 68 1014.2
20260507151521 65 124 7.0 8.7 0.00 0.19 0.00 68 1014.3
20260507150021 65 124 7.8 10.4 0.00 0.19 0.00 70 1014.3
20260507144550 65 119 8.7 11.3 0.00 0.19 0.00 65 1014.3
20260507143100 65 120 7.8 11.3 0.00 0.19 0.00 69 1014.4
20260507141548 65 128 7.8 10.4 0.00 0.19 0.00 69 1014.5
20260507140046 65 120 8.7 10.4 0.00 0.19 0.00 68 1014.4
20260507134546 65 111 7.0 8.7 0.00 0.19 0.00 69 1014.4
20260507133044 65 103 6.1 7.0 0.00 0.19 0.00 70 1014.5
20260507131558 65 93 5.2 7.0 0.00 0.19 0.00 71 1014.6
20260507130042 65 83 5.2 6.1 0.00 0.19 0.00 71 1014.6
20260507124539 65 80 5.2 7.0 0.00 0.19 0.00 71 1014.6
20260507123039 65 73 6.1 7.0 0.00 0.19 0.00 71 1014.7
20260507121533 65 66 5.2 7.0 0.00 0.19 0.00 69 1014.7
20260507120033 65 68 6.1 7.0 0.00 0.19 0.00 70 1014.8
20260507114531 65 69 5.2 7.0 0.00 0.19 0.00 72 1014.8
20260507113031 65 68 5.2 6.1 0.00 0.19 0.00 69 1014.8
20260507111602 64 68 4.3 6.1 0.00 0.19 0.00 68 1014.9
20260507104557 64 63 4.3 6.1 0.00 0.19 0.00 69 1015.1
20260507103057 64 65 5.2 6.1 0.00 0.19 0.00 65 1015.1
20260507101557 64 61 5.2 7.0 0.00 0.19 0.00 66 1015.2
20260507100055 64 64 4.3 5.2 0.00 0.19 0.00 65 1015.3
20260507094552 64 62 4.3 5.2 0.00 0.19 0.00 62 1015.3
20260507093055 64 68 3.5 5.2 0.00 0.19 0.00 60 1015.3
20260507091550 64 65 3.5 5.2 0.00 0.19 0.00 59 1015.3
20260507090049 64 101 3.5 3.5 0.00 0.19 0.00 64 1015.2
20260507084547 64 79 2.6 3.5 0.00 0.19 0.00 62 1015.0
20260507083044 64 65 3.5 4.3 0.00 0.19 0.00 62 1014.9
20260507081543 64 66 2.6 2.6 0.00 0.19 0.00 64 1014.8
20260507080042 65 86 0.9 3.5 0.00 0.19 0.00 52 1014.6
20260507074539 65 64 1.7 3.5 0.00 0.19 0.00 53 1014.7
20260507073038 65 171 1.7 4.3 0.00 0.20 0.00 58 1014.6
20260507073005 65 184 1.7 4.3 0.00 0.20 0.00 60 1014.6
20260507071558 65 244 0.9 4.3 0.00 0.20 0.00 59 1014.7
20260507070032 64 270 1.7 6.1 0.00 0.20 0.00 62 1014.7
20260507064527 64 268 2.6 6.1 0.00 0.20 0.00 61 1014.5
20260507063057 63 248 2.6 5.2 0.00 0.20 0.00 65 1014.5
20260507061556 62 272 1.7 4.3 0.00 0.20 0.00 67 1014.3
20260507060044 61 241 1.7 3.5 0.00 0.20 0.00 72 1014.1
20260507054541 60 276 1.7 4.3 0.00 0.20 0.00 73 1014.1
20260507053105 59 260 1.7 3.5 0.00 0.23 0.00 74 1014.0
20260507051542 58 257 0.9 3.5 0.00 0.23 0.00 75 1013.9
20260507050036 56 262 0.9 3.5 0.00 0.23 0.00 77 1013.8
20260507044531 55 217 0.9 3.5 0.00 0.23 0.00 78 1013.4
20260507043028 55 212 1.7 2.6 0.00 0.23 0.00 78 1013.3
20260507041528 55 229 0.9 2.6 0.00 0.23 0.00 79 1013.1
20260507040100 55 243 0.0 1.7 0.00 0.23 0.00 81 1013.0
20260507034555 56 225 0.0 1.7 0.00 0.23 0.00 77 1013.0
20260507033051 57 259 0.9 3.5 0.00 0.23 0.00 76 1013.0
20260507031551 57 276 0.0 2.6 0.00 0.23 0.00 77 1012.8
20260507030047 57 266 0.0 1.7 0.00 0.23 0.00 77 1012.9
20260507024545 57 252 0.0 3.5 0.00 0.23 0.00 76 1012.8
20260507023042 57 252 0.9 2.6 0.00 0.23 0.00 78 1012.9
20260507021543 57 279 0.9 2.6 0.00 0.23 0.00 78 1013.0
20260507020041 58 241 0.0 2.6 0.00 0.23 0.00 78 1012.9
20260507014547 58 255 1.7 6.1 0.00 0.23 0.00 76 1013.0
20260507013031 58 262 2.6 6.1 0.00 0.23 0.19 76 1012.7
20260507011538 58 222 2.6 7.0 0.00 0.23 0.19 78 1012.6
20260507010112 58 241 3.5 7.0 0.00 0.23 0.19 79 1012.6
20260507004615 58 210 2.6 7.0 0.00 0.23 0.19 78 1012.6
20260507003029 58 148 1.7 6.1 0.00 0.23 0.19 78 1012.7
20260507001528 58 223 3.5 7.8 0.00 0.23 0.19 79 1012.6
20260507000026 58 207 2.6 7.8 0.01 0.23 0.19 80 1012.8
20260506234525 58 224 0.9 4.3 0.01 0.23 0.19 80 1013.0
20260506233025 58 242 1.7 4.3 0.01 0.23 0.19 81 1013.2
20260506231523 58 258 0.9 6.1 0.01 0.23 0.19 81 1013.2
20260506230020 59 256 2.6 6.1 0.00 0.22 0.18 79 1013.3
20260506224520 59 233 2.6 5.2 0.00 0.22 0.18 81 1013.3
20260506223018 59 293 0.9 4.3 0.00 0.22 0.18 85 1013.3
20260506221517 59 230 0.0 0.9 0.00 0.22 0.18 85 1013.2
20260506220028 59 228 0.0 3.5 0.00 0.22 0.18 84 1013.1
20260506214512 59 288 0.9 4.3 0.00 0.22 0.18 83 1013.1
20260506213012 59 257 1.7 7.8 0.00 0.22 0.18 82 1013.2
20260506211511 59 298 1.7 7.0 0.00 0.22 0.18 82 1012.9
20260506210012 60 259 4.3 10.4 0.01 0.22 0.18 79 1013.0
20260506204508 60 227 2.6 6.1 0.01 0.22 0.18 83 1012.9